Location: Joplin, MO
(37.0842°N, 94.5133°W)
Time: 11:35:48
(UTC+02:00)

Vanguard 3 - Pass Details

Date: 02 April 2023
Orbit: 507 x 3246 km, 33.4° (Epoch: 01 June)

Event Time Altitude Azimuth Distance (km) Brightness Sun altitude
Rises 08:57:21 0° 238° (WSW) 5,429 - -47.2°
Reaches altitude 10° 09:00:26 10° 235° (SW) 4,735 - -47.1°
Maximum altitude 09:14:58 65° 157° (SSE) 3,172 - -46.3°
Exits shadow 09:17:53 60° 123° (ESE) 3,371 9.9 -46.1°
Drops below altitude 10° 09:34:32 10° 82° (E) 6,148 11.8 -44.7°
Sets 09:39:12 0° 80° (E) 7,065 12.3 -44.3°
